Simultaneous Nadir Overpasses (SNOs) Predictions

Prediction of SNOs between GOES-16 and LANDSAT-8 Satellite Orbit:

Table of predicted SNOs for the next 14.0 days since TLE Epoch: 1/27/2024
Index Date Time (GOES-16) GOES-16 Lat,Lon LANDSAT-8 Lat,Lon Distance(km) Time Diff (sec)
1 01/27/2024 03:04:45 -0.02, -75.19 0.42, -73.18 229.12 6
2 01/27/2024 15:24:47 0.02, -75.22 0.68, -78.34 354.54 80
3 01/29/2024 15:15:17 0.03, -75.24 0.07, -75.39 17.62 80
4 01/31/2024 15:03:07 0.03, -75.26 -0.56, -72.44 320.04 80
5 02/01/2024 03:24:31 -0.03, -75.24 -0.57, -77.63 272.22 80
6 02/03/2024 03:09:41 -0.02, -75.26 0.10, -74.68 65.84 80
7 02/05/2024 02:57:30 -0.02, -75.29 0.72, -71.73 404.08 80
8 02/05/2024 15:18:46 0.02, -75.31 0.36, -76.89 179.39 80
9 02/07/2024 15:09:15 0.01, -75.34 -0.29, -73.94 159.07 80
10 02/08/2024 03:30:38 -0.00, -75.33 -0.81, -79.13 432.68 80
11 02/09/2024 14:57:03 0.00, -75.37 -0.90, -70.98 498.39 80
